Modesto, CA

11:07 AM PDT on June 26, 2017 (GMT -0700)
Modesto City-County-Sham

Weather History for KMOD - October, 2014

Change the Weather History Date:

Sunday, October 19, 2014

  Actual Average Record
Temperature  
Mean Temperature 67 °F -  
Max Temperature 83 °F 78 °F 88 °F (1988)
Min Temperature 51 °F 52 °F 37 °F (1949)
Degree Days  
Heating Degree Days 0 2  
Month to date heating degree days 0 19  
Since 1 July heating degree days 1 22  
Cooling Degree Days 2 2  
Month to date cooling degree days 124 73  
Year to date cooling degree days 1852 1685  
Growing Degree Days 17 (Base 50)    
Moisture  
Dew Point 52 °F    
Average Humidity 64    
Maximum Humidity 96    
Minimum Humidity 31    
Precipitation  
Precipitation 0.00 in 0.02 in 0.28 in (2004)
Month to date precipitation 0.00 0.33  
Year to date precipitation 5.81 9.36  
Since 1 July precipitation 0.30  
Snow  
Snow 0.00 in - 0.00 in (2002)
Month to date snowfall 0.0  
Since 1 July snowfall 0.0  
Since 1 September snowfall 0.0  
Snow Depth 0.00 in    
Sea Level Pressure  
Sea Level Pressure 29.87 in    
Wind  
Wind Speed 1 mph (NNW)    
Max Wind Speed 10 mph    
Max Gust Speed 14 mph    
Visibility 10 miles    
Events      
T = Trace of Precipitation, MM = Missing Value Source: NWS Daily Summary

Daily Weather History Graph

Daily Weather History Graph

Search for Another Location

Airport or City:

Trip Planner

Search our weather history database for the weather conditions in past years. The results will help you decide how hot, cold, wet, or windy it might be!

Date:

Astronomy

Oct. 19, 2014 Rise Set
Actual Time 7:15 AM PDT 6:20 PM PDT
Civil Twilight 6:49 AM PDT 6:47 PM PDT
Nautical Twilight 6:18 AM PDT 7:17 PM PDT
Astronomical Twilight 5:48 AM PDT 7:48 PM PDT
Moon 3:18 AM PDT (10/19) 4:11 PM PDT (10/19)
Length of Visible Light 11h 58m
Length of Day
11h 04m
Waning Crescent, 16% of the Moon is Illuminated
Oct 19
Waning Crescent
Oct 23
New
Oct 30
First Quarter
Nov 6
Full
Nov 14
Last Quarter

Hourly Weather History & Observations

Time (PDT) Temp. Dew Point Humidity Pressure Visibility Wind Dir Wind Speed Gust Speed Precip Events Conditions
12:53 AM 55.0 °F 51.1 °F 86% 29.89 in 10.0 mi Calm Calm - N/A   Clear
1:53 AM 54.0 °F 50.0 °F 86% 29.89 in 10.0 mi Calm Calm - N/A   Clear
2:53 AM 55.9 °F 51.1 °F 84% 29.88 in 10.0 mi Calm Calm - N/A   Clear
3:53 AM 54.0 °F 51.1 °F 90% 29.88 in 10.0 mi Calm Calm - N/A   Clear
4:53 AM 53.1 °F 50.0 °F 89% 29.88 in 10.0 mi Calm Calm - N/A   Clear
5:53 AM 52.0 °F 50.0 °F 93% 29.88 in 8.0 mi Calm Calm - N/A   Clear
6:53 AM 53.1 °F 50.0 °F 89% 29.88 in 9.0 mi Calm Calm - N/A   Clear
7:53 AM 54.0 °F 51.1 °F 90% 29.90 in 9.0 mi Calm Calm - N/A   Clear
8:53 AM 61.0 °F 53.1 °F 75% 29.92 in 9.0 mi Calm Calm - N/A   Clear
9:53 AM 66.9 °F 53.1 °F 61% 29.92 in 10.0 mi Variable 4.6 mph - N/A   Clear
10:53 AM 71.1 °F 54.0 °F 55% 29.92 in 10.0 mi Variable 5.8 mph - N/A   Clear
11:53 AM 73.9 °F 54.0 °F 50% 29.91 in 10.0 mi Calm Calm - N/A   Clear
12:53 PM 75.9 °F 52.0 °F 43% 29.89 in 10.0 mi Calm Calm - N/A   Clear
1:53 PM 78.1 °F 51.1 °F 39% 29.86 in 10.0 mi Calm Calm - N/A   Clear
2:53 PM 81.0 °F 48.0 °F 31% 29.84 in 10.0 mi Calm Calm - N/A   Clear
3:53 PM 81.0 °F 48.0 °F 31% 29.83 in 10.0 mi SSW 3.5 mph - N/A   Clear
4:53 PM 82.0 °F 48.9 °F 31% 29.81 in 10.0 mi Calm Calm - N/A   Clear
5:53 PM 80.1 °F 48.9 °F 34% 29.81 in 10.0 mi NW 5.8 mph - N/A   Clear
6:53 PM 73.0 °F 52.0 °F 48% 29.82 in 10.0 mi Calm Calm - N/A   Clear
7:53 PM 68.0 °F 52.0 °F 56% 29.83 in 10.0 mi Calm Calm - N/A   Clear
8:53 PM 69.1 °F 54.0 °F 58% 29.84 in 10.0 mi NW 8.1 mph - N/A   Clear
9:53 PM 68.0 °F 55.0 °F 63% 29.86 in 10.0 mi North 5.8 mph - N/A   Clear
10:53 PM 66.0 °F 55.0 °F 68% 29.87 in 10.0 mi North 5.8 mph - N/A   Clear
11:53 PM 64.9 °F 55.0 °F 70% 29.87 in 10.0 mi North 3.5 mph - N/A   Clear